{"data":{"norad_id":68703,"epoch":"2026-05-25T04:00:03.998880Z","epoch_age_seconds":71196,"freshness":"FRESH","line1":"1 68703U 26081E   26145.16671295 -.01823034  00000+0 -43736-1 0  9992","line2":"2 68703  53.1601  39.2288 0000980  83.5899  28.2157 15.43970112  6018","mean_motion":15.43970112,"eccentricity":9.8e-5,"inclination_deg":53.1601,"raan_deg":39.2288,"arg_perigee_deg":83.5899,"mean_anomaly_deg":28.2157,"bstar":-0.043736,"rev_number":601,"period_min":93.266054103514,"perigee_km":433.73824698688,"apogee_km":435.07350539061,"semimajor_km":6812.5428761887,"source":"CELESTRAK","updated_at":"2026-05-25T13:38:21.998163Z"}}